• Processing (Info)

  • MPEC 2014-A11 : 2013 YX102

    The following Minor Planet Electronic Circular may be linked-to from your own Web pages, but must not otherwise be redistributed electronically.

    A form allowing access to any MPEC is at the bottom of this page.


    Read MPEC 2014-A10 Read MPEC 2014-A12


    M.P.E.C. 2014-A11                                Issued 2014 Jan. 2, 21:37 UT
    
         The Minor Planet Electronic Circulars contain information on unusual
             minor planets and routine data on comets.  They are published
       on behalf of Commission 20 of the International Astronomical Union by the
              Minor Planet Center, Smithsonian Astrophysical Observatory,
                              Cambridge, MA 02138, U.S.A.
    
                 Prepared using the Tamkin Foundation Computer Network
    
                                  MPC@CFA.HARVARD.EDU
                URL http://www.minorplanetcenter.net/    ISSN 1523-6714
    
                                      2013 YX102
    
    Observations:
         K13YA2X* C2013 12 31.41764 07 57 36.79 +34 58 01.2          21.0 VqEA011G96
         K13YA2X  C2013 12 31.42405 07 57 34.28 +34 58 27.0          20.9 VqEA011G96
         K13YA2X  C2013 12 31.43046 07 57 31.84 +34 58 52.6          20.9 VqEA011G96
         K13YA2X  C2013 12 31.43689 07 57 29.35 +34 59 18.2          21.6 VqEA011G96
         K13YA2X KC2013 12 31.53346 07 56 53.27 +35 05 33.6          20.5 RoEA011291
         K13YA2X KC2013 12 31.53426 07 56 52.97 +35 05 36.6          20.7 RoEA011291
         K13YA2X  C2014 01 01.28598 07 52 56.57 +35 53 30.3          20.6 VqEA011G96
         K13YA2X  C2014 01 01.30195 07 52 50.95 +35 54 29.0          20.6 VqEA011G96
         K13YA2X KC2014 01 01.43145 07 52 05.61 +36 02 00.8          20.9 RoEA011291
         K13YA2X KC2014 01 01.43342 07 52 04.94 +36 02 07.6          20.9 RoEA011291
         K13YA2X KC2014 01 01.43530 07 52 04.30 +36 02 13.0          20.7 RoEA011291
         K13YA2X  C2014 01 02.39562 07 47 25.66 +36 53 22.7          21.6 VqEA011G96
         K13YA2X  C2014 01 02.39867 07 47 24.73 +36 53 32.3          20.8 VqEA011G96
         K13YA2X  C2014 01 02.40172 07 47 23.77 +36 53 40.3          21.8 VqEA011G96
    
    Observer details:
    291 LPL/Spacewatch II.  Observers T. H. Bressi, R. A. Mastaler.  1.8-m f/2.7
        reflector + CCD.
    G96 Mt. Lemmon Survey.  Observers R. A. Kowalski, E. J. Christensen.
        Measurers A. Boattini, E. J. Christensen, A. R. Gibbs, A. D. Grauer,
        R. E. Hill, J. A. Johnson, R. A. Kowalski, S. M. Larson, F. C. Shelly.
        1.5-m reflector + CCD.
    
    Orbital elements:
    2013 YX102                                               Earth MOID = 0.0126 AU
    Epoch 2013 Nov. 4.0 TT = JDT 2456600.5                  MPC
    M   1.79640              (2000.0)            P               Q
    n   0.60137535     Peri.  285.09118     +0.93154370     -0.32540182
    a   1.3900774      Node    94.10857     +0.36337154     +0.84982648
    e   0.4324831      Incl.    9.36447     -0.01369149     +0.41461864
    P   1.64           H   25.2           G   0.15           U   6
    Residuals in seconds of arc
    131231 G96  0.0   0.0     131231 291  0.1+  0.0     140101 291  0.1+  0.5-
    131231 G96  0.4-  0.1+    140101 G96  0.1-  0.1+    140102 G96  0.2-  0.3-
    131231 G96  0.1+  0.0     140101 G96  0.1-  0.3+    140102 G96  0.2+  0.5+
    131231 G96  0.1-  0.1-    140101 291  0.1-  0.0     140102 G96  0.1+  0.1-
    131231 291  0.2+  0.0     140101 291  0.0   0.3+
    
    Ephemeris:
    2013 YX102               a,e,i = 1.39, 0.43, 9                   q = 0.7889
    Date    TT    R. A. (2000) Decl.     Delta      r     Elong.  Phase     V
    2013 12 03    17 20 00.9 -52 49 20   0.1233  0.8835    31.9   143.9    27.8
    ...
    2013 12 18    12 11 25.0 -40 15 38   0.03223 0.9734    69.9   108.3    21.8
    ...
    2013 12 26    08 43 11.9 +23 45 30   0.05113 1.0267   146.9    31.6    20.1
    ...
    2014 01 01    07 54 24.8 +35 36 05   0.08937 1.0679   160.3    18.0    21.0
    2014 01 02    07 49 19.4 +36 33 12   0.09623 1.0749   161.2    17.1    21.2
    2014 01 03    07 44 45.9 +37 21 28   0.1032  1.0818   161.8    16.5    21.3
    ...
    2014 01 09    07 25 18.2 +40 13 55   0.1467  1.1237   161.9    15.8    22.1
    ...
    2014 01 17    07 11 47.7 +41 30 32   0.2091  1.1796   157.4    18.7    23.1
    ...
    2014 02 01    07 05 15.5 +41 09 24   0.3408  1.2824   146.1    25.4    24.6
    
    A. U. Tomatic                (C) Copyright 2014 MPC           M.P.E.C. 2014-A11
    

    Read MPEC 2014-A10 Read MPEC 2014-A12


    MPEC number:

    Enter an MPEC number in one of the following forms:

    • 1997-B01 (the full form)
    • J97B01 (the packed version of the full form)
    • B01 (the abbreviated form)